Theta_e
319 323 324 327 333 343 352 351 346 347 354 356 354 355 354 353 355 355 353 350 350 355 355 352 352 349 345 345 343 344 344 343 343 343 343 343 344 344 344 344 344 344 344 344 344 344 344 344 344 345 344 344 345 344 341 340 342 342 341 341 339 340 341 341 340 337 336 338 339 340 341 342 342 342 343 343 342 339 338 338 339 339 341 342 343 342
322 325 326 327 329 333 343 348 343 342 351 356 355 354 353 353 354 354 353 350 349 353 353 351 351 347 345 344 343 345 346 344 342 342 343 343 343 344 343 343 344 344 344 344 344 343 344 344 344 345 344 345 345 344 343 342 343 343 342 341 340 340 340 340 340 338 339 340 339 340 340 341 341 341 342 342 342 340 339 340 342 343 343 343 343 342
324 325 326 325 323 322 328 332 331 334 343 353 355 354 353 354 353 351 352 349 348 352 351 349 350 350 350 347 345 346 348 347 343 342 343 343 343 342 343 343 343 343 343 343 343 343 344 344 344 345 345 345 345 345 344 344 344 344 342 341 340 340 340 340 339 339 341 340 339 339 339 339 339 339 340 340 341 340 340 341 342 343 343 343 343 343
324 326 324 321 320 321 323 322 323 331 341 352 356 354 354 353 352 353 352 347 347 350 350 350 350 351 353 350 346 346 346 347 346 343 342 342 343 343 343 343 343 342 342 342 342 343 343 344 344 344 345 345 345 346 345 344 344 344 343 341 340 340 340 339 339 340 341 340 339 340 340 340 340 339 338 338 339 339 339 340 341 343 344 344 344 344
324 324 320 320 322 324 324 322 324 335 345 353 354 354 357 355 352 353 351 346 348 350 348 349 350 350 351 349 347 345 344 346 347 345 342 341 342 343 342 342 342 342 341 342 342 343 344 344 344 344 344 345 345 346 345 343 343 343 343 343 341 342 342 339 339 341 341 339 340 341 341 342 342 342 340 338 337 337 337 338 339 342 344 345 345 344
323 321 318 321 324 323 324 324 324 329 340 349 352 352 355 354 351 352 350 348 350 350 349 350 349 349 350 350 348 347 347 348 347 345 342 341 341 340 340 340 341 342 342 342 342 342 343 343 344 345 345 345 345 346 346 343 341 341 343 344 342 343 343 339 338 340 341 339 340 340 340 341 343 343 341 339 337 336 336 336 336 339 343 345 345 344
322 320 320 323 324 324 324 324 325 327 335 344 349 351 354 353 352 351 349 350 351 350 350 351 349 349 350 350 349 348 350 351 349 346 341 339 340 339 339 339 339 340 340 341 342 342 342 343 344 344 345 346 346 346 347 345 343 341 342 343 343 343 344 342 339 340 340 339 340 340 340 341 342 342 342 340 339 337 335 335 335 336 339 341 342 342
320 319 321 323 322 323 323 322 325 330 337 344 347 351 354 353 351 350 349 350 351 350 350 350 350 349 348 349 349 348 349 350 351 350 344 338 339 339 339 339 339 339 340 340 341 342 342 342 343 344 345 346 346 346 347 346 346 344 343 343 343 343 344 344 341 340 340 339 340 341 342 343 343 343 343 342 342 341 338 336 335 334 336 337 338 339
318 319 322 322 321 321 322 324 324 331 344 346 346 347 349 350 350 349 350 349 348 349 349 350 351 349 349 351 351 349 349 349 350 352 347 339 337 339 339 339 339 339 339 340 341 341 341 342 342 343 345 346 346 347 347 347 347 346 344 343 344 344 344 344 342 340 339 338 340 343 344 344 344 344 344 344 344 343 341 338 336 335 336 338 338 339
320 321 321 320 323 321 321 323 320 332 351 346 341 342 341 343 346 347 350 349 347 348 349 350 350 348 349 351 351 350 350 349 349 350 347 340 337 339 339 339 339 339 339 340 340 340 340 341 342 343 345 346 346 346 347 347 347 346 345 344 344 344 343 342 342 340 338 338 341 344 345 345 345 344 345 345 346 345 343 340 338 337 338 339 339 340
319 319 321 320 321 320 324 328 323 333 348 343 341 342 340 343 346 348 351 349 347 348 349 349 348 347 349 351 351 349 349 349 348 348 347 342 338 338 339 339 339 339 340 340 340 340 340 340 342 343 345 346 346 347 347 347 347 347 346 344 344 344 343 341 340 339 338 338 342 345 345 346 345 345 346 346 346 346 343 340 339 339 339 339 340 340
320 319 322 321 321 328 341 345 337 338 344 344 346 345 345 348 349 349 350 349 349 349 349 349 348 347 348 351 352 350 348 347 346 348 348 345 340 338 339 339 339 339 339 340 340 340 340 342 343 344 345 346 346 347 348 348 348 347 346 345 345 345 344 341 339 339 338 338 342 345 346 346 346 346 346 346 346 346 343 341 340 340 340 339 339 339
324 322 320 320 324 336 351 352 345 344 345 346 347 345 348 350 347 348 348 347 348 348 348 349 350 348 348 353 356 351 347 346 346 347 347 345 342 339 338 339 339 339 339 340 341 341 341 342 343 344 345 346 346 347 347 347 348 348 347 346 345 345 345 342 340 339 338 338 341 344 346 347 347 347 346 346 347 347 346 344 341 340 339 338 339 339
326 324 325 330 335 338 347 351 348 348 348 347 345 343 348 349 347 348 347 345 346 347 348 349 350 350 349 355 358 351 346 345 345 346 346 345 343 340 339 339 339 339 339 341 341 342 342 342 343 344 345 346 346 346 347 347 348 348 347 346 345 345 344 343 340 339 338 338 339 342 345 347 347 347 347 346 347 346 347 346 343 340 339 338 338 339
322 321 328 340 345 342 342 347 348 349 348 347 345 343 344 347 349 349 348 348 348 347 348 348 348 350 351 356 356 350 345 344 345 346 345 345 345 342 340 339 339 339 339 340 342 342 341 341 342 343 344 345 346 346 347 347 347 347 347 346 345 345 345 343 340 338 338 338 338 340 343 346 346 346 346 347 347 347 347 347 344 342 340 339 338 339
319 321 328 332 340 344 342 342 344 347 348 345 342 342 343 346 350 347 344 347 348 347 349 348 348 352 355 357 355 351 347 345 345 346 347 347 346 344 342 339 338 339 339 340 342 342 342 342 342 343 344 345 345 346 346 346 346 347 347 346 345 344 345 343 341 338 338 339 340 340 341 343 345 346 346 347 347 347 346 347 346 343 341 340 339 339
318 325 328 322 332 344 343 344 344 344 348 345 340 341 341 343 351 350 344 347 347 345 346 346 350 355 353 353 356 353 349 347 346 346 347 347 346 345 343 340 339 339 339 340 341 342 342 343 343 343 344 345 345 345 346 346 346 346 347 347 346 345 344 343 341 340 340 340 341 342 342 343 344 346 346 347 347 346 346 347 347 346 344 344 343 341
319 324 327 323 331 340 340 342 344 341 344 346 343 343 342 341 347 352 350 350 347 345 347 347 350 352 348 349 355 354 352 349 347 346 347 347 347 345 345 343 340 339 339 340 341 341 342 343 343 343 344 345 345 345 345 345 346 346 347 347 346 344 343 343 342 341 341 341 342 343 344 344 345 345 346 346 346 346 346 347 347 347 347 347 346 344
322 323 327 325 327 335 341 343 346 344 339 340 342 343 344 342 340 342 344 348 347 347 348 346 348 350 347 348 354 354 353 351 348 347 348 348 347 345 345 345 342 340 340 340 341 342 343 343 343 343 344 344 345 345 345 345 345 347 347 346 345 343 342 343 343 342 342 342 342 343 344 345 345 345 345 345 345 345 347 347 347 347 347 347 348 347
324 322 325 326 324 331 343 345 346 348 340 334 337 339 341 342 341 342 343 343 343 345 346 343 344 349 348 349 355 354 352 351 349 348 347 347 347 346 345 345 343 341 341 341 341 342 343 344 343 343 344 344 345 345 345 345 346 347 347 346 344 342 342 343 343 343 342 342 342 342 343 343 344 345 345 345 346 346 346 347 347 346 346 346 347 346
330 325 322 327 327 333 344 344 340 346 343 334 337 340 336 335 338 342 341 340 342 346 347 341 340 345 346 349 354 353 350 350 349 348 347 346 346 346 345 345 345 343 342 341 341 342 342 343 343 344 344 344 344 345 345 346 346 347 348 347 345 344 344 343 343 343 342 342 342 342 342 341 341 342 343 344 345 346 347 348 347 347 346 345 345 345
330 329 325 327 327 331 340 335 327 335 339 334 339 344 338 334 337 338 338 339 340 343 344 340 337 341 345 348 351 351 350 349 348 347 347 345 346 346 346 345 345 344 343 342 342 342 342 343 343 344 344 344 345 345 345 346 346 347 347 347 347 347 346 345 344 343 342 342 343 343 342 340 341 342 342 342 344 346 348 348 347 347 347 346 345 344
329 331 329 327 327 327 328 325 321 324 328 328 334 342 339 336 338 338 339 341 337 336 341 340 336 340 345 347 350 351 349 348 348 347 347 346 346 345 345 345 345 345 344 343 342 342 342 343 343 344 344 345 345 345 345 346 346 347 347 347 348 348 348 348 347 345 343 343 343 343 342 341 341 342 342 342 343 346 347 347 347 347 346 346 345 344
332 332 329 331 337 334 328 326 327 328 329 326 327 331 331 330 334 338 344 345 338 338 343 340 335 341 348 348 349 350 349 349 349 347 347 347 347 346 345 345 345 345 345 344 343 343 343 343 343 344 344 345 344 345 345 345 346 347 347 348 348 348 348 348 348 347 344 342 343 343 343 342 342 343 343 342 343 345 346 346 346 346 346 346 346 346
328 332 335 335 336 335 330 329 332 334 333 328 328 332 332 332 331 332 337 338 334 338 344 338 335 342 348 348 349 350 349 350 349 347 347 347 347 347 345 344 344 344 345 345 345 344 344 344 344 344 344 345 344 345 345 345 346 347 347 348 347 348 348 348 348 347 344 342 342 343 344 343 343 343 343 343 344 345 345 345 345 345 346 347 347 347
330 335 341 336 329 327 328 327 326 327 330 335 339 340 342 341 332 327 332 333 330 338 344 341 341 347 350 348 350 351 350 351 350 348 347 346 347 347 345 344 344 343 344 345 345 345 345 344 344 344 344 344 345 345 345 346 346 346 347 348 347 347 348 348 348 347 344 341 341 342 343 343 343 343 344 344 344 343 343 344 344 345 346 347 347 348
338 335 341 342 332 327 328 329 328 331 338 345 346 343 345 345 335 327 331 332 335 344 345 343 347 353 354 351 351 351 350 351 351 348 347 347 347 347 346 345 344 344 344 344 345 345 345 345 345 345 345 345 345 345 345 345 346 346 347 347 347 347 348 348 348 348 346 342 340 340 341 342 342 343 344 345 345 344 343 343 344 344 345 347 348 348
345 334 334 341 334 329 333 333 333 338 342 344 345 345 347 347 342 336 332 331 336 338 337 342 349 353 354 353 352 351 350 350 350 348 348 348 349 348 347 346 346 345 345 345 345 345 345 345 345 346 346 345 345 345 346 346 346 346 347 347 347 347 348 348 348 349 348 345 342 340 339 340 341 343 344 345 345 345 344 344 344 344 345 346 347 348
349 336 328 333 332 331 335 333 332 337 339 341 344 345 347 347 347 349 344 341 340 335 336 347 353 353 353 353 351 349 349 349 349 349 348 348 348 348 348 348 347 347 347 346 346 346 346 346 345 346 346 346 346 346 346 346 346 347 347 347 347 347 347 348 347 348 349 348 346 343 340 339 340 342 343 344 345 344 344 344 345 344 345 346 346 347
342 339 331 332 334 333 335 335 334 335 335 339 341 342 345 347 346 348 348 347 347 345 346 351 352 352 350 348 347 346 346 347 348 349 349 348 348 347 347 348 348 348 348 347 347 347 346 346 346 345 346 346 347 347 347 347 347 347 347 348 348 347 347 348 347 347 348 349 349 347 344 340 340 340 341 342 343 343 343 343 343 343 344 346 347 347
330 333 333 335 336 336 336 334 333 334 335 338 339 339 342 345 346 348 347 347 349 350 350 350 351 352 348 344 345 345 345 346 347 348 348 348 349 348 347 348 348 347 348 348 348 348 347 347 346 346 345 345 346 347 347 347 347 347 348 348 348 348 347 347 348 347 348 349 349 349 348 344 341 340 340 341 341 342 342 342 342 342 343 346 347 347
331 331 332 336 336 335 336 335 332 331 332 336 339 338 340 343 345 347 347 346 347 349 349 350 352 352 348 345 345 344 344 345 346 346 347 347 348 349 348 348 348 348 349 348 348 348 348 347 346 346 346 345 346 346 347 348 347 348 348 348 348 347 347 348 348 348 348 349 349 350 350 349 345 341 340 340 340 341 341 343 344 344 344 345 347 348
336 332 330 335 332 329 334 337 333 331 333 338 339 337 338 342 343 344 345 344 344 346 349 350 350 349 347 345 346 346 345 345 345 345 345 346 346 347 348 348 348 348 348 348 348 348 348 347 345 345 345 345 345 346 346 346 347 348 348 348 349 348 348 348 349 349 350 350 350 349 349 349 348 345 342 341 341 341 341 344 346 346 346 346 347 349
332 328 331 337 332 327 332 334 333 337 342 342 340 338 337 338 339 342 342 340 341 344 346 347 347 346 346 345 346 346 345 344 345 345 344 345 345 345 346 347 347 347 348 348 348 348 348 347 345 345 345 346 346 347 347 347 347 348 348 348 349 349 349 349 348 349 350 350 351 352 351 349 346 344 343 343 344 344 344 345 347 347 347 348 348 350
333 330 332 338 334 331 336 335 331 338 344 339 337 340 338 334 335 339 339 336 337 340 343 345 346 345 345 345 344 343 343 343 343 344 344 344 344 344 345 345 345 346 347 347 347 347 347 347 346 345 345 344 345 345 346 347 347 348 348 349 349 350 350 351 350 351 350 348 350 351 352 352 349 345 343 346 348 348 348 348 347 347 348 349 350 350
334 334 333 334 329 328 336 335 328 330 336 336 335 336 334 333 335 340 341 338 336 336 340 344 345 345 344 343 341 341 341 342 341 341 342 343 343 343 343 343 344 345 345 346 346 347 348 347 347 347 345 344 344 344 345 345 346 347 348 348 349 350 349 350 351 352 351 348 347 347 348 349 350 349 348 348 349 350 350 349 349 348 348 349 350 350
328 333 335 332 327 329 337 336 332 332 333 335 335 331 330 332 334 337 343 341 335 334 338 341 343 344 342 341 341 340 339 340 341 341 341 341 342 342 342 343 343 344 344 345 345 346 347 348 348 348 348 347 347 347 346 345 345 345 346 346 347 347 348 350 351 351 351 348 347 348 347 346 348 350 350 350 349 349 350 350 350 350 350 350 349 349
324 327 333 332 328 334 342 338 335 337 337 338 336 330 327 329 328 330 339 341 335 334 339 341 342 343 342 341 340 339 339 342 342 341 340 339 340 340 340 341 342 343 344 344 345 345 346 347 348 348 349 349 349 348 347 347 346 345 345 345 346 345 347 349 349 349 349 347 347 348 348 346 346 348 349 350 350 349 349 349 348 348 349 350 350 349
329 330 337 337 330 333 341 340 338 339 338 339 338 330 327 329 328 328 336 338 335 336 339 340 340 341 341 340 338 338 342 346 343 340 339 339 339 339 339 340 340 342 342 343 344 345 345 346 347 347 348 349 349 349 349 348 347 346 346 346 346 346 348 348 347 347 347 347 348 349 348 347 347 347 347 349 350 349 350 350 349 347 346 348 349 350
341 340 339 336 334 337 340 339 337 337 334 334 335 332 328 328 328 331 335 334 334 338 340 339 339 339 339 338 336 337 342 344 341 339 339 338 337 336 336 337 337 339 340 341 342 343 344 344 344 345 347 348 348 349 349 348 348 348 348 348 348 348 349 349 348 347 347 347 347 348 348 347 347 347 347 348 348 348 349 350 350 349 347 347 348 349
341 341 337 336 339 342 342 338 333 333 334 332 331 330 327 325 327 332 334 332 333 338 340 338 337 338 338 337 337 338 340 340 339 338 337 336 334 334 333 332 333 336 338 340 341 342 342 343 343 343 344 345 345 346 347 347 347 346 346 347 347 348 348 348 349 349 349 349 349 348 347 346 347 348 349 349 349 349 348 348 348 350 349 348 347 348
332 334 334 336 337 336 339 338 332 330 330 328 328 328 326 324 325 330 332 333 335 338 338 336 336 337 337 338 338 339 339 339 338 337 336 333 332 333 331 327 327 332 337 338 339 340 340 341 341 341 341 342 343 344 345 346 346 345 345 346 346 347 347 347 348 349 349 349 349 348 348 348 349 349 350 350 350 349 348 348 349 350 350 349 348 347
329 332 333 334 331 332 338 337 331 329 328 327 329 330 329 328 329 332 334 337 338 337 336 336 336 336 337 338 338 339 339 339 338 336 334 333 332 332 330 325 322 327 333 336 336 337 338 339 339 340 340 340 341 341 342 344 344 344 344 345 344 345 346 346 347 347 347 346 346 346 347 347 348 348 348 349 349 348 348 348 348 349 350 350 348 346
328 333 337 334 331 337 345 341 333 331 329 327 329 331 331 331 333 336 337 338 338 337 336 336 336 336 337 337 338 339 339 338 338 336 334 333 331 330 329 324 319 319 326 330 331 331 334 336 337 338 338 338 339 340 340 341 342 341 341 342 341 342 342 343 344 344 343 342 343 344 345 345 345 345 344 345 345 345 345 345 345 345 346 346 345 344
325 327 331 332 329 332 338 337 332 329 327 328 330 332 333 335 335 337 338 337 338 338 337 337 337 337 337 337 337 338 338 337 337 335 333 333 330 328 326 322 317 314 316 319 321 321 322 327 331 334 335 336 337 337 337 338 339 339 338 338 339 340 340 340 340 340 340 340 341 341 342 342 342 342 342 342 342 343 344 343 343 343 343 343 342 342
324 322 327 332 329 327 329 329 327 327 327 330 332 333 334 336 336 337 338 337 338 338 337 337 338 337 338 338 337 336 336 336 336 334 333 332 329 326 325 322 318 316 313 313 314 314 314 316 320 325 329 332 333 334 334 335 335 334 333 333 334 337 338 338 338 338 338 338 339 339 340 340 340 340 340 340 340 341 341 342 341 341 340 340 340 339
326 324 330 333 330 331 334 329 326 327 328 330 334 335 334 336 336 337 338 338 337 337 337 336 337 337 336 337 336 334 334 333 333 333 331 330 327 327 327 325 323 320 317 314 312 312 312 312 313 316 319 322 324 326 327 328 328 328 328 329 330 330 331 333 335 337 335 334 333 332 333 333 332 331 332 334 336 338 339 339 338 337 336 335 335 335
325 325 332 333 331 332 333 328 325 327 328 330 333 334 333 335 336 336 337 337 337 337 336 336 336 336 335 335 335 334 332 332 332 330 328 327 327 328 328 327 326 324 322 319 316 313 312 311 312 313 314 314 315 315 315 316 317 318 320 323 323 323 322 325 329 330 330 329 327 326 326 326 325 325 327 330 331 333 335 336 335 334 332 330 328 328
326 327 329 330 331 330 329 327 326 328 329 330 332 332 333 334 335 335 336 336 336 336 336 336 336 336 334 334 334 332 331 331 329 327 325 325 327 327 327 327 327 326 325 324 321 316 314 313 314 314 314 314 314 313 312 311 310 310 310 312 313 313 316 322 326 327 327 326 327 327 325 324 325 327 329 330 329 328 329 329 328 328 327 327 326 325
329 332 327 329 335 335 332 330 328 329 331 331 331 331 331 332 333 334 335 336 335 336 336 336 336 335 333 332 331 329 328 328 327 326 326 326 326 325 325 327 328 327 327 327 323 317 314 315 316 314 313 314 314 314 313 312 311 310 308 308 307 307 309 314 319 322 322 322 325 327 326 325 326 328 329 330 330 329 329 328 326 326 326 327 328 328
329 330 328 334 341 338 332 328 326 327 330 330 330 330 329 329 329 330 332 334 334 335 336 336 336 335 334 332 331 328 328 329 330 330 331 330 328 326 326 327 328 327 327 327 325 319 315 317 317 315 314 315 316 316 317 317 316 315 313 311 310 309 309 310 312 313 312 314 319 323 325 326 327 328 328 328 329 329 329 328 328 327 328 329 329 328
Wind_Speed
6 3 1 4 5 6 8 9 5 1 4 5 3 2 1 2 1 3 4 4 6 4 2 0 1 6 10 9 10 16 19 17 17 17 18 21 22 23 24 25 26 27 26 25 24 23 22 20 18 16 14 13 14 15 15 16 15 15 15 16 17 17 17 17 17 17 17 18 17 17 16 15 14 13 12 12 13 14 14 13 12 12 11 10 9 9
5 4 5 6 7 8 8 7 4 2 3 4 3 3 1 1 1 2 4 3 2 2 2 2 2 5 7 8 10 14 13 12 16 18 19 22 23 24 24 25 27 27 26 25 25 24 23 22 20 18 16 15 16 17 17 17 15 16 16 16 17 17 17 17 17 17 17 16 15 15 15 14 13 13 12 12 12 13 13 13 11 10 9 9 9 8
1 3 6 7 5 3 4 3 3 3 1 1 2 3 1 1 2 2 4 4 2 1 2 2 3 3 1 2 6 8 6 6 13 19 23 24 24 24 26 26 27 26 26 25 26 25 25 24 22 20 17 16 16 17 18 17 16 17 17 17 17 18 18 17 17 17 16 14 13 13 14 14 13 12 12 11 11 12 13 12 10 9 9 9 8 7
1 4 5 5 4 2 2 3 2 4 3 1 2 2 2 3 3 1 3 5 1 2 4 4 3 1 2 1 3 4 2 1 5 15 23 26 26 28 29 28 28 27 26 26 26 27 26 25 24 22 19 16 17 18 18 18 17 18 18 18 18 18 18 18 18 17 15 14 14 14 14 13 12 12 12 12 12 12 12 12 10 9 8 8 7 7
4 6 3 4 5 4 2 2 2 4 3 2 3 4 2 4 3 2 4 5 2 3 7 7 3 2 2 3 5 7 6 5 5 9 19 25 27 28 28 28 29 28 27 27 28 28 27 26 25 23 20 18 18 20 19 17 17 17 17 17 17 17 17 18 19 18 17 17 16 16 16 14 13 12 13 13 13 13 12 12 11 10 9 9 8 7
5 7 4 3 2 3 2 2 4 5 2 3 4 7 4 4 5 6 8 6 2 2 7 8 4 2 4 6 8 6 4 5 6 7 17 25 26 25 24 26 29 29 29 29 28 29 28 27 26 24 22 19 19 20 19 17 17 17 17 17 16 16 17 18 19 19 19 18 18 17 17 16 15 14 14 13 12 11 12 11 11 11 11 10 9 7
3 4 5 5 4 4 2 4 4 5 2 3 4 6 6 6 7 8 8 4 1 2 4 4 3 2 4 7 10 8 6 6 6 6 15 23 24 24 25 26 28 30 30 30 29 29 29 28 27 26 24 21 19 19 19 18 17 17 16 17 16 15 16 17 19 19 19 19 18 17 16 16 14 13 13 11 10 9 10 10 11 11 10 10 8 7
1 1 1 3 4 4 3 5 4 6 5 3 4 4 8 8 7 8 6 2 1 2 1 2 1 2 3 8 10 10 8 8 7 6 10 20 25 26 26 26 28 31 31 31 31 30 29 28 28 27 25 22 19 18 19 19 18 17 17 17 16 15 15 16 18 18 19 19 18 17 16 14 13 12 11 9 9 9 9 10 10 10 10 10 9 8
1 1 4 5 3 4 5 6 7 8 5 1 3 9 7 7 6 5 4 2 2 2 2 4 4 2 3 5 7 9 10 11 10 8 8 17 25 26 27 27 29 31 32 32 32 30 30 28 27 26 25 22 20 18 18 18 17 16 16 17 17 16 15 16 17 18 19 19 18 17 15 14 12 11 10 8 8 8 9 10 10 11 10 10 10 9
4 6 8 6 4 5 7 7 8 8 4 4 10 13 8 8 7 3 2 2 2 0 3 5 6 3 3 3 6 9 11 12 10 7 8 16 25 27 27 28 29 31 32 32 31 30 28 27 26 26 25 23 21 19 17 16 16 16 16 17 17 16 16 16 17 18 19 19 18 17 15 13 12 11 10 9 8 8 9 10 11 11 11 11 11 10
7 6 4 4 7 8 5 3 5 10 11 10 11 10 8 6 5 2 2 2 1 2 2 6 9 4 3 3 8 9 9 11 9 6 7 13 22 27 27 28 29 31 32 33 32 30 28 26 26 27 25 23 22 21 19 18 16 15 16 17 17 16 16 17 17 18 19 20 19 17 15 14 12 11 11 10 10 9 10 10 11 11 11 11 11 11
5 2 2 6 12 8 4 3 3 12 15 9 5 5 5 3 3 2 2 2 1 3 2 3 8 6 4 4 6 7 10 13 13 9 8 12 20 27 28 28 30 32 33 33 33 31 30 29 29 29 27 24 23 22 21 19 17 16 16 17 17 16 16 17 18 18 20 20 19 18 16 14 13 12 11 11 10 10 11 11 11 11 11 11 12 12
4 4 2 3 8 10 8 5 4 6 6 4 5 6 4 2 2 2 2 2 2 3 1 2 6 5 6 5 5 8 11 15 17 14 15 17 21 27 29 29 29 32 33 34 33 33 32 32 32 30 28 26 24 22 21 20 18 17 16 16 17 17 16 17 18 19 20 21 21 19 17 16 14 13 13 12 11 11 11 11 12 12 12 12 12 12
4 4 2 2 3 9 9 7 4 2 3 5 6 6 4 2 2 1 2 2 3 3 1 3 4 3 4 4 6 11 14 19 21 22 22 22 24 28 31 31 30 31 33 34 34 34 33 33 32 31 29 27 24 22 21 20 18 17 17 17 18 17 17 17 19 20 20 21 21 20 19 17 16 15 14 14 13 12 12 12 13 13 13 13 12 11
1 4 2 2 2 6 7 7 10 8 5 5 4 5 5 4 3 3 3 2 2 1 1 4 3 3 2 3 4 7 15 22 23 23 23 23 25 27 28 30 30 31 33 34 34 35 34 34 33 32 30 27 25 23 22 20 19 18 17 17 18 18 18 18 19 20 20 20 20 20 20 19 17 16 15 14 13 12 12 13 14 14 13 13 12 11
1 4 7 4 3 8 5 4 9 9 4 2 2 3 2 4 5 2 2 4 3 1 1 2 2 3 3 3 3 1 8 15 19 20 18 17 21 24 25 27 30 32 33 34 35 35 35 35 34 33 31 28 26 24 23 21 19 19 18 18 18 19 20 20 20 21 20 20 20 20 20 19 18 17 16 15 14 13 13 12 13 14 14 13 12 12
1 4 7 4 1 6 6 5 7 7 4 2 2 3 4 4 6 4 1 1 2 1 1 2 2 3 2 3 1 3 5 9 13 17 16 14 17 21 23 26 30 33 34 35 36 37 37 36 35 34 32 30 28 26 24 22 19 18 18 18 18 19 20 21 21 21 21 20 20 20 20 19 18 18 17 16 15 14 13 13 13 13 13 13 12 12
1 4 5 3 3 1 8 12 5 2 4 4 3 5 2 2 3 4 1 2 2 1 2 2 3 3 1 2 1 4 6 8 10 13 15 15 17 20 22 25 29 33 35 36 37 37 37 37 36 35 33 31 28 26 24 21 19 17 17 18 19 19 20 21 21 21 20 20 20 20 20 19 18 18 17 16 15 15 14 14 13 13 13 13 12 12
3 2 6 3 2 1 5 10 3 4 0 4 3 3 4 2 1 1 2 1 2 1 3 2 3 3 3 3 4 7 9 10 11 11 14 16 19 22 23 24 27 31 33 35 37 37 38 37 37 36 34 32 30 27 24 22 20 18 17 18 19 19 19 19 20 21 21 20 20 20 20 19 19 18 17 16 15 15 15 14 14 14 14 13 13 13
3 1 4 5 3 1 2 3 5 5 2 4 2 1 3 3 3 1 2 2 3 2 2 1 2 2 4 3 5 10 12 11 13 12 13 18 23 24 25 24 25 28 32 35 37 38 38 38 38 36 34 32 30 28 25 24 21 19 17 17 18 18 18 18 19 21 21 21 21 21 20 20 20 19 18 17 16 17 16 14 14 14 14 14 14 14
2 3 2 6 6 1 1 1 3 5 3 2 2 2 1 1 2 1 1 1 3 2 2 0 1 4 3 2 5 9 10 11 14 13 13 20 27 27 28 27 25 27 32 35 37 38 38 38 38 37 35 32 31 29 27 26 23 20 18 17 17 18 18 18 19 20 21 21 21 21 21 21 20 20 19 18 18 18 16 15 14 14 13 14 15 15
1 2 1 4 4 1 4 4 2 2 4 5 3 3 2 1 1 1 2 2 1 3 3 2 1 4 3 2 4 6 6 9 14 16 15 21 29 30 31 30 27 26 30 34 36 37 38 38 37 37 35 34 33 31 29 27 25 22 20 18 18 18 18 18 18 19 19 20 21 22 22 21 21 20 20 19 18 17 16 15 15 14 14 14 15 16
2 3 2 2 4 4 7 6 3 0 4 6 3 2 2 2 3 4 2 2 1 1 1 1 0 3 3 4 5 4 5 9 14 16 16 20 26 29 31 32 29 26 27 31 34 35 36 37 37 36 36 35 34 32 31 29 27 24 21 20 19 19 18 18 18 18 19 19 20 21 21 22 21 21 20 20 19 18 17 16 15 15 15 15 15 16
3 3 3 3 5 4 5 5 5 5 5 5 1 1 3 4 3 4 3 2 2 2 1 1 1 3 4 6 6 3 3 7 11 13 14 15 20 25 28 30 30 28 25 26 29 31 33 34 35 36 36 36 35 34 32 30 28 25 23 22 21 20 18 18 18 18 19 19 19 20 21 22 22 21 21 21 20 19 18 17 16 15 15 15 14 15
2 1 3 4 6 6 5 5 6 6 4 1 1 0 2 4 1 2 1 2 0 3 3 3 1 4 4 6 7 7 6 6 6 8 11 11 13 20 24 25 28 29 26 22 23 26 29 32 34 36 36 36 36 35 33 32 29 26 24 23 22 20 19 18 18 18 19 19 19 20 21 22 22 22 22 21 20 19 18 17 16 16 16 15 15 14
3 2 3 3 1 2 3 3 2 3 4 2 2 3 4 4 2 3 1 1 2 3 2 4 3 3 4 7 8 7 5 6 8 9 11 10 11 16 21 23 25 28 27 23 22 23 26 30 33 35 36 36 36 35 34 33 30 28 25 24 22 21 21 20 18 18 19 20 20 20 21 21 22 22 22 21 20 19 18 18 17 16 16 16 15 15
4 2 3 5 5 2 4 6 5 3 1 2 4 5 7 4 3 4 3 2 4 1 3 0 3 1 5 8 8 7 5 4 5 9 13 12 11 13 17 19 22 25 25 24 22 22 24 27 31 33 35 36 36 36 35 33 31 29 27 25 23 22 22 22 20 19 19 20 20 21 20 21 22 22 22 22 20 19 19 18 18 17 16 16 16 16
5 2 3 6 5 3 1 6 9 6 3 2 3 6 9 9 3 4 2 3 3 3 1 3 2 3 4 6 7 7 6 5 4 6 11 13 12 13 15 16 18 20 22 22 22 22 23 26 29 31 34 36 36 36 36 34 33 31 28 25 24 23 23 23 22 21 19 20 20 21 21 20 20 21 22 21 21 20 19 19 19 18 17 17 17 17
5 2 3 5 3 1 8 12 13 11 5 4 7 9 10 11 9 8 3 3 2 3 3 3 5 5 4 5 6 6 6 6 7 7 8 11 11 12 14 15 16 17 18 20 20 21 22 24 27 30 32 34 36 36 36 36 35 33 31 28 26 25 24 24 23 22 21 20 20 21 21 21 20 20 21 22 21 20 20 20 19 18 18 18 18 17
3 1 2 4 4 4 9 9 7 11 10 7 9 11 10 10 10 11 9 6 7 8 7 8 9 7 5 5 5 6 6 7 9 10 10 10 9 9 11 13 14 15 16 17 18 19 20 20 23 27 30 32 34 35 36 36 35 34 33 31 29 28 27 26 25 23 22 21 20 20 21 22 21 21 21 22 22 21 20 20 19 19 18 19 19 18
2 0 0 5 4 4 4 3 3 8 10 10 10 11 10 10 9 9 9 7 8 10 9 9 9 6 5 5 6 8 8 9 11 12 11 9 8 9 10 12 14 15 16 17 17 17 18 20 22 25 27 30 32 33 34 35 35 34 34 33 31 30 29 29 27 25 23 22 20 20 21 22 22 22 21 21 22 22 21 21 20 19 19 19 19 19
3 2 1 5 4 2 1 2 6 7 7 9 12 13 11 9 7 6 8 7 5 5 7 7 6 4 4 5 8 10 11 12 13 12 11 9 6 6 7 9 12 15 16 17 17 16 15 17 19 22 25 27 29 31 32 34 34 34 35 34 33 32 31 30 29 28 26 23 21 20 21 22 23 23 23 22 22 23 22 21 20 19 19 19 19 19
2 3 2 3 4 2 4 4 6 6 4 5 6 6 7 8 7 7 9 9 7 3 3 4 4 3 4 6 7 9 10 12 13 13 11 9 7 6 4 5 7 10 12 15 16 16 13 11 13 17 20 22 25 27 29 31 32 33 34 34 34 34 33 32 31 31 29 26 23 22 21 21 22 23 23 23 22 22 22 21 20 20 19 20 20 20
2 3 3 2 3 3 5 6 4 1 0 3 3 2 3 8 9 7 7 8 8 6 3 5 5 5 6 7 6 8 10 12 14 14 13 11 9 8 6 3 3 6 8 11 14 16 16 12 10 12 14 15 17 20 22 25 28 29 32 33 33 33 33 32 33 32 30 28 26 24 22 21 21 22 22 21 20 19 19 20 20 20 20 20 20 21
3 2 1 2 3 2 1 2 2 1 3 4 3 3 1 3 5 5 6 6 7 7 4 6 7 6 8 9 9 11 13 15 16 16 15 13 10 9 8 6 3 0 3 6 9 12 15 15 13 13 13 13 13 15 17 19 21 23 26 28 30 32 31 31 32 31 30 28 27 25 23 22 20 20 21 20 19 18 19 19 20 20 21 21 21 22
6 3 2 2 1 2 3 4 1 3 5 4 4 4 2 3 3 3 4 4 5 5 5 3 7 8 9 10 10 12 14 16 19 19 17 15 13 11 11 10 8 5 2 3 5 8 10 11 13 15 16 15 15 17 20 22 22 22 23 23 25 26 26 29 31 30 28 27 27 25 24 24 24 23 22 21 20 20 21 21 21 21 22 23 23 23
6 4 2 2 1 2 4 2 2 3 4 4 3 2 1 2 1 2 2 2 2 1 3 1 5 8 7 7 7 8 8 12 15 16 16 14 13 12 12 11 10 7 5 3 4 6 7 7 8 10 12 13 15 18 21 24 25 26 27 27 25 23 22 24 26 26 26 28 28 26 25 26 28 28 26 25 24 23 22 23 24 25 25 26 26 25
4 3 3 3 1 2 5 3 1 2 2 4 3 2 2 2 1 4 3 2 3 1 3 2 4 6 5 2 4 5 4 6 7 9 12 12 10 10 10 10 10 9 8 6 4 3 4 5 6 7 8 9 12 14 17 20 22 24 27 27 24 22 21 21 22 24 26 28 28 27 26 26 28 29 28 27 26 24 24 24 25 26 28 28 28 28
5 3 3 4 2 2 5 4 2 2 3 4 6 5 6 4 2 4 5 3 4 1 2 3 3 4 4 2 4 4 4 4 3 5 9 10 10 11 11 11 11 11 10 9 7 5 2 3 5 7 9 8 9 10 11 14 17 19 22 22 21 21 19 18 21 23 23 23 24 25 23 21 23 25 26 26 25 25 26 26 26 27 29 30 29 28
6 5 4 4 2 2 3 2 2 3 2 3 5 6 8 2 5 6 4 4 4 2 2 4 4 4 4 1 3 5 4 4 4 4 6 9 12 15 15 15 15 15 14 12 10 8 5 4 3 4 9 10 10 10 11 12 11 12 15 17 17 17 14 14 18 19 17 18 20 21 19 18 20 22 23 25 25 24 24 24 25 26 28 29 30 29
3 4 3 3 2 2 3 2 1 2 2 3 5 9 6 3 4 3 1 5 4 5 2 3 5 5 3 3 5 7 7 9 10 9 9 12 16 18 18 18 18 17 16 14 11 9 7 8 9 6 3 2 3 5 7 10 9 8 9 10 10 10 10 11 12 11 10 12 15 17 18 19 20 22 25 26 26 25 24 24 25 25 25 27 30 30
1 2 2 2 2 2 2 2 0 2 2 1 6 6 3 3 1 2 3 4 7 7 4 3 5 6 7 11 14 15 14 13 12 12 12 14 17 18 18 18 18 18 17 15 13 13 12 12 14 15 14 14 11 8 4 3 7 7 7 7 6 5 5 5 4 3 4 6 9 11 13 14 16 20 22 23 23 23 22 22 23 24 24 25 26 28
2 2 1 0 1 2 2 2 1 2 2 4 5 2 1 1 2 5 7 9 8 8 8 8 9 11 15 18 18 17 15 13 12 13 14 15 16 17 17 17 18 18 17 18 17 17 16 16 18 19 19 18 16 14 11 8 8 9 9 9 8 7 4 3 1 1 2 3 4 6 9 11 13 14 14 15 15 15 16 17 18 20 22 23 23 23
2 2 1 2 2 2 2 1 3 4 3 5 3 2 2 2 4 7 9 9 9 9 12 14 14 16 19 19 17 16 15 14 13 12 13 14 15 15 16 16 18 18 17 17 18 17 18 19 20 21 20 18 17 16 14 13 13 14 15 15 14 11 9 7 5 4 4 3 2 3 5 7 7 6 6 7 8 10 12 12 13 13 15 17 17 16
2 3 3 3 2 3 4 4 3 2 3 4 4 5 5 6 5 6 9 11 11 11 13 16 16 16 17 17 16 15 14 14 13 12 13 13 14 15 16 16 17 17 16 16 16 16 17 19 19 20 20 18 17 17 17 16 16 17 20 19 17 14 14 13 11 10 9 8 5 3 1 2 2 2 2 2 3 2 3 5 7 8 8 8 6 4
2 2 4 3 1 1 1 0 2 3 4 6 8 7 7 7 6 7 10 13 13 12 13 14 15 14 14 14 15 15 14 13 13 12 12 12 13 14 16 16 16 16 15 15 15 15 15 16 17 17 17 17 15 15 15 15 15 17 18 17 16 15 14 13 12 12 12 12 10 9 7 6 7 7 7 8 9 8 7 6 7 7 6 5 5 5
2 2 3 3 2 2 1 2 3 4 4 7 10 9 8 8 8 9 12 14 14 13 12 13 12 11 11 11 12 14 14 13 13 13 11 11 13 14 15 16 16 17 16 16 15 15 14 14 15 15 15 14 13 12 11 11 12 13 12 12 13 13 11 10 9 10 11 11 10 10 10 10 10 10 9 9 10 10 10 10 10 10 11 11 9 8
2 3 3 3 3 2 2 3 1 5 5 7 10 10 10 10 9 10 12 13 13 12 11 11 10 10 9 9 10 11 12 11 11 12 11 11 13 13 14 14 14 15 16 16 16 15 14 14 14 14 14 14 13 11 10 10 10 10 9 8 8 8 7 7 7 6 7 7 7 7 8 9 9 9 8 9 9 9 10 10 9 9 9 10 10 9
5 4 3 3 3 2 1 2 3 5 5 6 10 12 12 12 11 12 12 12 12 12 11 10 10 9 9 9 8 8 10 10 10 11 12 12 11 11 11 11 12 13 14 14 15 15 15 16 16 15 15 15 14 13 12 12 11 10 9 8 7 7 7 7 7 6 5 4 4 5 6 7 8 8 9 9 9 9 9 9 8 8 8 9 9 8
5 3 2 4 4 1 3 8 9 4 2 6 11 12 12 12 13 13 12 12 11 11 11 11 12 11 10 9 8 8 11 12 10 10 10 9 8 7 8 8 9 10 11 12 13 14 15 16 16 16 16 16 15 16 16 16 16 15 13 11 9 8 8 7 6 5 4 3 4 5 6 6 6 6 7 8 8 9 9 9 8 8 8 8 8 8
6 8 8 7 4 4 8 17 16 8 7 11 13 12 12 12 12 13 13 13 12 12 12 13 14 13 12 11 9 8 10 10 9 7 6 6 6 6 6 6 6 7 8 10 11 12 14 15 16 16 16 17 16 17 17 18 17 17 16 14 13 11 10 9 7 5 4 3 3 3 5 5 5 5 6 7 8 9 9 9 8 8 8 7 7 7
Wind_Direction
150 138 209 207 211 204 212 217 216 148 111 118 118 111 164 154 117 113 124 174 167 126 104 105 158 166 164 165 160 162 170 176 178 182 183 185 189 192 195 199 205 210 213 217 220 221 221 220 213 201 196 192 183 184 186 184 182 180 177 174 170 168 169 169 171 169 164 162 161 159 158 159 162 163 161 161 161 160 161 161 162 163 163 162 160 161
133 174 227 216 214 212 219 229 248 308 69 96 131 140 146 194 127 89 113 150 184 126 93 43 87 167 171 165 160 155 158 176 185 187 188 190 194 197 199 201 206 211 214 217 219 218 216 215 211 202 198 195 186 184 187 187 184 181 179 177 174 172 172 174 175 172 168 166 163 160 158 159 161 161 160 159 159 161 162 162 163 165 165 166 165 166
100 231 247 231 216 218 255 268 248 254 253 91 115 126 187 226 123 87 98 97 18 26 132 125 120 149 199 165 168 155 137 166 190 196 196 195 197 200 201 203 205 207 211 214 215 213 213 211 209 204 202 201 192 187 188 188 185 183 180 179 178 177 177 177 177 175 171 165 159 155 154 152 153 153 153 155 158 163 164 165 168 168 167 168 171 171
211 245 252 216 170 162 282 294 205 215 235 185 126 125 204 198 145 107 118 114 65 100 136 140 120 63 331 308 239 231 221 238 210 209 207 202 202 205 205 205 205 204 206 209 209 210 209 207 208 205 203 203 195 191 190 189 188 185 182 182 181 179 181 180 177 175 171 162 154 150 147 146 147 149 153 158 162 166 167 169 170 170 171 175 177 176
229 245 232 130 134 159 200 300 204 199 247 243 178 186 200 182 160 99 115 124 105 120 133 128 106 293 238 198 234 242 247 274 274 229 214 211 211 210 208 206 206 207 208 208 206 206 207 207 207 205 203 203 198 194 193 193 191 188 185 185 184 181 182 181 178 175 172 166 159 155 153 153 153 155 160 165 167 170 172 173 172 172 178 184 184 180
263 254 204 129 132 163 166 259 220 189 250 301 217 204 185 157 141 116 127 127 96 182 161 149 154 227 208 205 218 224 242 267 276 241 214 212 214 213 209 204 204 206 209 211 209 207 209 209 207 204 202 203 199 196 196 195 193 192 189 188 188 184 181 181 178 177 177 173 168 166 165 164 164 165 168 171 172 174 176 177 178 180 185 189 187 185
275 252 178 165 202 197 208 259 222 164 159 297 247 198 151 128 129 134 143 138 127 198 190 183 181 171 194 219 218 214 229 248 271 256 216 210 210 211 210 204 201 201 203 207 209 208 210 209 206 203 201 203 199 195 195 194 193 192 191 191 191 188 184 181 180 181 182 180 177 175 172 170 170 171 171 172 173 175 179 184 187 190 193 196 195 195
214 304 200 182 206 199 214 254 222 153 142 266 277 141 127 121 130 143 140 109 28 93 176 217 156 111 206 219 210 205 221 242 258 263 224 209 206 208 210 205 200 199 199 201 203 206 209 209 208 203 202 203 200 195 194 193 192 190 190 192 191 191 189 183 183 186 187 186 185 183 179 175 174 173 169 169 173 176 184 192 196 198 200 205 208 208
204 164 210 199 201 202 215 235 200 150 130 272 58 83 101 106 109 130 125 82 24 61 213 210 161 156 246 218 197 197 214 232 237 243 226 206 204 206 207 204 201 199 199 200 202 205 208 209 208 205 203 203 200 197 195 194 192 188 188 190 190 192 193 190 188 189 191 191 190 188 184 181 178 174 171 173 178 182 189 195 200 203 205 208 214 214
248 219 208 168 158 212 226 227 188 152 128 126 97 78 66 66 61 54 77 80 64 122 217 193 170 195 268 204 184 196 212 222 224 227 222 206 203 204 204 203 202 198 198 200 203 206 209 210 208 206 205 203 201 200 198 196 193 188 186 188 189 190 193 195 192 192 194 193 192 193 192 191 188 182 179 181 185 191 194 196 200 205 208 210 214 217
262 246 221 171 199 212 207 212 175 147 137 123 100 78 65 55 47 30 24 78 124 259 235 174 171 194 284 214 195 198 197 207 216 211 209 205 202 203 203 202 200 198 198 200 204 207 211 211 208 206 206 204 203 201 200 200 197 192 189 189 191 191 193 197 197 196 196 196 195 196 198 200 200 195 191 190 190 194 198 198 202 208 211 213 215 218
302 252 224 228 217 188 102 51 119 138 138 123 101 102 86 27 12 32 3 36 174 258 291 163 164 176 235 232 209 200 183 193 206 202 191 195 199 202 203 202 201 200 199 201 203 206 208 207 206 206 207 206 204 202 202 203 201 198 196 195 196 197 198 200 201 200 198 198 199 199 201 203 206 207 206 202 198 198 201 203 206 210 213 216 216 218
310 226 250 270 203 158 110 64 78 120 131 107 111 121 98 21 10 10 326 334 235 240 298 153 163 181 234 243 208 200 197 198 200 197 192 191 195 200 202 203 202 201 201 202 203 205 206 206 206 206 207 208 207 205 203 204 204 203 202 201 201 202 204 204 205 205 202 202 202 202 203 202 204 210 212 213 210 207 208 211 213 213 214 216 216 217
325 297 333 36 178 165 139 115 124 166 176 151 143 140 134 114 97 253 268 302 272 265 63 133 167 211 264 258 206 196 202 203 199 196 194 193 196 200 202 203 203 203 203 203 204 205 207 208 207 207 208 208 209 208 206 206 206 206 206 207 207 207 208 209 209 209 207 206 207 207 206 205 205 209 210 214 217 217 217 219 220 218 216 217 218 219
29 322 275 170 173 175 165 158 165 166 162 174 168 142 144 150 158 191 205 209 239 283 88 127 166 205 209 259 250 210 202 199 197 197 195 194 198 200 200 201 202 203 204 204 205 207 209 211 209 209 209 209 210 209 209 209 208 208 209 209 210 209 211 213 214 212 210 210 211 212 212 211 211 212 212 214 221 225 223 223 225 223 220 221 222 220
135 268 248 245 189 173 185 185 155 135 131 198 123 113 163 176 153 126 172 184 159 123 169 169 220 231 201 246 286 238 194 189 188 196 198 193 192 193 196 199 201 203 203 203 205 208 211 212 211 210 210 210 211 211 211 211 211 211 211 211 212 213 214 216 217 215 214 213 214 216 216 217 217 217 216 217 223 228 225 226 228 227 225 226 226 224
29 278 264 301 269 180 157 141 144 134 140 158 133 173 218 174 130 109 148 207 102 117 238 201 254 294 303 283 266 125 162 175 180 194 201 196 188 188 192 197 201 202 203 204 206 209 211 212 212 212 212 211 212 213 214 215 215 215 214 213 213 215 216 218 219 218 217 217 217 217 217 218 219 220 220 220 224 227 227 227 229 227 225 225 226 225
171 289 289 2 8 216 127 125 144 188 139 125 184 203 192 56 86 107 111 8 57 219 262 217 248 284 305 289 223 149 170 183 186 190 195 197 193 192 194 198 201 202 203 205 207 209 211 212 213 213 213 214 214 215 215 216 218 218 217 215 214 217 219 219 220 219 219 220 221 220 219 218 217 220 222 223 226 228 228 228 228 227 224 223 225 226
112 322 299 353 47 259 104 112 141 281 130 113 176 190 114 79 299 88 125 153 129 232 278 257 262 253 209 216 196 184 188 189 189 188 189 193 193 194 196 197 201 201 202 202 204 207 210 212 214 215 215 216 216 218 218 218 219 219 217 215 215 220 224 223 223 222 220 220 222 223 223 222 221 221 221 223 227 229 226 226 229 229 227 226 227 228
101 66 289 320 354 331 29 104 171 235 293 66 89 155 111 148 200 184 156 160 151 208 261 288 302 262 235 230 196 196 197 187 185 188 192 193 192 193 194 193 196 199 200 201 203 207 209 212 215 216 217 218 218 219 219 218 219 218 215 212 214 218 222 224 225 224 223 221 221 223 226 227 226 225 224 225 229 229 227 226 228 229 229 228 228 229
79 64 296 317 341 355 247 218 180 199 200 102 105 198 222 183 175 193 210 152 131 159 201 201 287 279 275 262 219 209 200 187 186 189 193 194 192 192 192 191 192 197 199 201 203 207 210 212 215 217 219 220 220 220 219 219 219 218 214 211 213 214 216 219 221 224 225 224 222 223 225 227 227 228 228 228 230 230 227 227 229 230 232 231 230 230
85 78 17 332 338 262 241 268 293 212 164 130 130 180 219 274 135 173 284 301 107 136 174 170 224 279 293 299 265 237 207 195 193 190 192 195 194 193 193 191 190 193 198 202 205 207 210 212 215 218 219 220 221 221 220 220 219 217 214 212 215 217 216 218 220 222 225 225 225 225 226 227 228 229 230 229 230 229 228 230 231 232 235 235 232 232
104 109 69 332 279 251 262 285 314 146 120 109 109 150 175 174 155 167 220 264 262 148 168 135 146 273 300 329 307 264 200 197 199 195 193 195 196 195 193 193 192 191 195 201 205 208 210 213 216 218 219 220 222 222 222 221 220 219 216 214 218 222 222 222 222 223 224 225 226 227 227 228 228 229 230 229 229 229 228 230 231 232 236 236 234 234
65 70 54 340 300 304 307 325 6 32 68 94 103 124 174 217 205 183 186 177 192 206 161 102 291 273 321 346 343 5 126 165 187 197 197 192 194 196 193 193 194 193 192 195 202 208 211 214 216 218 220 221 222 223 223 222 221 221 219 217 219 225 227 227 227 225 225 226 226 228 229 229 229 229 230 230 229 229 229 229 230 232 233 234 235 234
66 71 70 36 341 346 352 2 17 2 4 94 202 3 248 266 266 172 193 75 171 230 159 127 237 271 315 348 4 31 67 96 123 169 185 180 181 190 191 192 195 196 193 192 198 205 210 213 216 218 220 222 223 224 224 224 223 223 223 221 220 224 228 229 229 227 227 227 227 227 229 229 229 229 229 229 230 229 229 229 230 230 231 234 234 232
90 120 86 81 15 337 319 318 343 302 302 325 331 352 341 299 221 174 190 88 208 254 92 117 198 254 323 354 10 23 55 82 91 121 153 165 170 180 185 189 194 197 199 201 202 205 210 214 217 219 221 222 223 224 225 225 225 225 226 225 223 224 227 228 229 228 228 229 228 228 230 230 230 229 229 229 229 229 229 230 230 230 231 233 233 232
83 79 88 118 148 195 253 264 279 291 319 334 323 348 3 336 219 161 121 157 192 166 56 128 194 124 359 1 9 9 26 68 93 115 134 151 162 169 175 180 186 193 201 208 209 210 212 214 217 220 222 223 225 226 227 228 227 227 229 229 227 226 227 228 228 228 228 230 230 231 231 232 231 230 229 230 230 230 230 230 232 233 233 234 235 233
87 59 106 123 149 206 342 345 337 352 44 25 0 19 19 11 35 112 130 240 204 134 171 258 163 101 31 15 19 14 24 38 55 101 126 136 142 151 161 168 176 185 196 205 208 210 211 213 216 219 222 224 225 227 228 229 230 229 230 232 231 228 228 229 229 230 231 231 232 233 234 235 234 232 231 231 232 232 233 232 233 236 237 237 236 234
101 119 167 123 113 75 53 32 360 352 358 17 43 47 36 31 45 64 60 263 199 138 182 179 115 94 55 31 22 21 35 49 58 88 127 137 136 145 153 159 168 178 191 202 206 210 211 212 215 218 221 223 225 227 228 229 230 231 231 233 234 232 231 230 230 232 233 233 235 236 236 237 237 234 232 233 233 233 233 234 235 236 237 237 236 236
96 129 177 112 76 40 64 62 2 348 343 350 37 50 44 46 52 55 62 77 91 99 116 113 96 76 50 33 21 27 44 63 76 91 112 131 143 156 164 169 176 183 195 205 210 214 215 216 217 219 220 222 224 226 227 229 231 232 232 234 235 236 235 232 232 233 235 236 239 240 238 237 237 236 234 234 234 234 234 235 236 235 234 234 235 236
98 142 230 95 79 1 34 73 331 335 327 331 15 39 39 44 48 43 50 67 81 93 106 101 87 68 48 44 45 46 53 63 67 72 82 104 137 160 173 183 190 197 205 210 214 216 219 220 219 219 219 220 222 225 227 229 231 232 233 234 236 237 237 235 233 234 236 237 240 243 242 239 237 236 236 236 236 237 237 238 237 236 234 233 234 236
106 140 14 78 89 282 320 358 305 301 291 313 359 21 23 33 50 50 45 45 50 88 106 94 79 62 47 57 61 55 55 59 54 53 62 79 112 148 171 184 193 203 207 209 213 214 216 220 220 217 216 217 220 223 225 228 230 231 233 234 235 237 238 238 236 236 238 239 239 242 243 241 239 238 239 239 238 238 239 239 238 236 234 234 234 234
121 149 171 98 100 196 182 186 262 284 271 279 327 2 13 25 44 55 51 42 29 33 85 77 67 66 63 67 68 60 57 58 54 50 53 62 81 104 136 178 199 212 218 221 223 221 216 215 213 212 213 215 218 222 225 227 229 230 232 232 233 234 236 237 236 236 238 238 238 240 242 240 237 236 239 240 239 238 237 237 238 235 233 232 232 231
122 145 180 130 108 189 196 184 207 313 14 235 262 285 17 35 41 47 44 32 23 24 61 83 75 69 70 69 66 62 58 57 57 56 53 55 63 70 75 105 183 212 222 228 233 232 230 224 209 202 204 207 212 216 220 224 227 229 231 231 232 234 235 237 238 237 237 238 238 240 244 244 237 233 233 233 233 234 235 237 238 236 232 231 230 230
121 103 138 101 109 181 216 49 43 324 245 246 286 301 310 44 58 67 56 34 23 15 30 78 80 69 74 75 67 65 65 61 59 56 55 57 58 55 53 49 41 188 218 227 235 240 240 240 234 224 218 213 214 219 223 224 225 226 229 231 233 234 235 238 240 239 237 239 240 239 244 250 246 235 226 223 226 233 238 242 242 238 233 231 231 233
135 122 105 73 94 151 84 50 330 264 265 284 325 332 338 19 39 70 57 29 27 7 344 40 86 87 85 82 70 68 72 68 60 52 47 51 53 54 54 45 33 24 345 273 257 255 253 252 252 249 245 240 238 240 240 239 235 230 229 229 230 232 234 238 243 242 238 241 244 241 241 250 256 250 236 227 227 232 237 242 245 244 240 237 237 239
129 137 115 69 63 132 108 106 285 313 309 299 327 351 13 10 13 109 98 325 347 15 302 296 105 101 99 89 63 58 68 68 60 45 36 39 44 48 52 50 45 37 22 355 290 272 269 268 265 261 260 258 254 251 247 245 242 238 236 236 236 236 235 234 239 243 241 243 248 247 243 247 255 258 252 242 237 236 238 242 244 246 248 246 243 244
104 152 158 133 131 104 102 99 10 5 284 256 257 279 345 348 230 144 108 314 283 187 227 231 111 106 126 118 359 3 37 62 56 34 27 30 33 36 41 43 47 47 38 29 4 311 284 274 261 245 242 248 248 245 243 243 243 240 238 238 238 241 242 238 242 247 243 243 249 252 249 249 253 259 260 255 250 246 247 249 250 252 255 255 251 249
50 55 103 107 95 107 114 122 161 190 232 246 242 275 343 2 192 131 70 332 273 177 185 213 163 149 181 243 344 10 52 70 64 34 27 30 37 43 45 43 46 50 50 45 40 31 359 305 271 226 210 213 221 221 222 228 234 235 236 236 237 241 244 242 242 242 240 241 247 252 255 256 255 257 259 259 257 256 256 257 256 255 257 259 258 254
27 23 54 80 89 110 111 119 182 210 238 233 243 298 342 28 148 106 57 282 250 147 165 208 188 187 206 213 40 50 68 101 113 78 48 50 56 58 57 54 54 58 60 61 58 55 47 17 354 236 221 225 228 225 222 219 217 218 223 226 229 231 229 223 223 226 231 239 247 253 260 263 262 259 258 258 259 259 260 261 260 259 258 258 259 258
7 21 63 108 110 76 90 124 207 250 232 228 286 318 349 90 117 90 213 228 179 133 166 201 175 178 181 130 105 92 92 107 113 99 79 72 68 65 61 58 58 61 63 64 58 53 54 54 58 76 112 155 199 215 223 223 219 214 212 212 216 218 213 209 213 215 223 239 250 258 262 263 263 259 255 254 256 257 259 262 263 263 263 260 259 258
15 38 44 82 85 71 106 118 337 279 234 315 328 334 34 103 157 210 184 138 121 127 136 128 139 143 123 110 110 112 112 111 106 97 87 79 73 70 65 59 59 62 64 65 62 59 64 72 78 82 78 72 73 75 80 182 195 190 186 179 172 175 175 177 190 207 235 258 266 266 263 261 258 255 252 251 252 255 259 262 260 258 258 257 256 258
139 110 43 153 140 104 77 65 71 206 251 343 350 354 99 111 183 151 113 98 106 119 114 106 113 123 121 117 117 120 121 116 105 95 90 84 77 72 67 61 60 64 66 68 69 70 76 82 84 83 78 73 73 72 71 88 115 120 119 114 106 100 102 105 95 319 293 289 277 260 255 254 252 252 256 256 255 255 259 261 260 256 251 249 251 257
138 136 187 212 183 122 104 161 204 218 284 338 2 160 160 138 138 123 106 105 112 112 111 113 118 124 125 122 122 125 125 118 108 95 89 85 77 71 69 65 64 67 68 69 69 71 76 81 82 80 76 71 70 72 76 82 90 94 93 89 85 84 85 88 87 81 82 90 137 208 237 251 255 262 272 274 270 267 267 266 264 257 250 248 253 263
203 181 163 160 171 168 176 206 234 278 339 17 75 112 120 120 116 104 104 113 116 113 110 112 119 126 125 122 124 126 124 120 113 101 91 84 76 71 70 66 65 68 71 72 71 70 72 77 81 82 81 77 73 72 75 81 86 88 86 83 81 79 76 76 76 75 77 82 90 100 92 313 321 328 337 356 355 319 275 249 230 223 226 235 245 251
208 150 120 113 146 195 151 3 7 26 41 68 87 99 111 115 108 101 105 111 114 114 108 108 116 122 122 123 125 124 123 124 118 107 96 85 79 77 74 69 67 67 68 71 72 69 70 74 78 82 84 84 80 77 76 80 83 84 83 84 84 82 76 72 71 73 78 81 83 81 76 65 60 63 70 70 69 77 92 118 145 149 139 126 116 108
246 135 98 88 92 103 75 327 353 32 60 85 93 98 103 107 108 109 109 112 116 116 109 105 108 113 118 123 123 119 121 123 115 109 102 91 87 86 78 72 70 69 68 68 67 67 70 74 76 81 84 85 84 82 81 83 83 83 84 88 90 88 84 80 77 77 79 79 76 73 71 67 60 57 63 71 75 82 92 99 103 104 102 99 94 88
195 140 110 87 84 120 214 256 27 73 92 107 107 106 105 107 113 115 112 115 121 119 112 104 99 103 114 121 121 118 119 119 115 111 107 101 98 93 82 76 73 70 68 67 65 66 71 75 76 76 78 78 77 76 75 76 78 79 79 81 83 82 82 90 93 90 84 78 68 58 54 53 50 50 59 71 80 90 100 101 97 95 92 85 78 75
133 131 140 117 98 77 274 215 122 85 82 110 115 113 110 110 115 117 114 117 123 122 120 112 100 98 108 114 117 118 116 116 116 113 111 112 107 97 87 83 79 73 68 64 62 64 67 70 71 72 72 71 67 62 59 60 63 66 67 65 62 60 66 84 102 107 96 82 67 56 50 52 57 62 68 74 77 80 86 88 84 78 72 67 65 64
122 135 141 106 112 165 218 185 168 137 110 148 133 120 116 114 113 116 117 117 119 122 126 123 112 106 106 106 109 117 119 118 117 113 114 118 115 104 94 88 84 80 73 63 57 60 64 66 68 72 75 75 71 65 62 59 58 59 58 57 55 54 58 71 92 106 103 86 70 64 59 56 57 59 66 73 70 62 60 61 62 63 62 60 60 60
160 169 171 152 157 220 196 178 171 151 142 156 145 127 124 120 113 116 118 116 116 120 126 126 121 116 111 108 109 119 122 117 110 106 108 115 122 118 101 92 94 94 83 69 60 61 65 66 66 72 78 80 76 70 65 61 59 58 56 54 54 53 52 54 60 68 74 71 64 59 55 54 52 52 59 64 58 49 46 47 51 54 52 47 44 39